Tracking 29892 objects as of 21-Nov-2024
HD Live streaming from Space Station
objects crossing your sky now

SL-19 DEB

Track SL-19 DEB now!
10-day predictions


NORAD ID: 23493
Int'l Code: 1994-085R
Perigee: 1,879.4 km
Apogee: 2,137.0 km
Inclination: 64.9 °
Period: 127.2 minutes
Semi major axis: 8379 km
RCS: 0.0464 m2 (small)
Launch date: December 26, 1994
Source: Commonwealth of Independent States (former USSR) (CIS)
Launch site: TYURATAM MISSILE AND SPACE COMPLEX (TTMTR)

Note: This is SATELLITE DEBRIS
Your satellite tracking list
Your tracking list is empty




NASA's NSSDC Master Catalog

Two Line Element Set (TLE):
1 23493U 94085R   24325.77753472  .00000119  00000-0  43715-2 0  9998
2 23493  64.9391  87.3038 0153719 287.9106 225.3929 11.31873525235551
Source of the keplerian elements: AFSPC